Probability
87 94 100 100 97 97 100 100 100 100 100 100 100 100 100 100 97 100 100 97 97 94 100 100 100 97 94 97 100 100 100 100 100 100 100 100 100 100 100 100 100 100 100
90 97 100 100 100 100 100 100 100 97 100 100 100 100 100 94 97 94 94 97 97 97 100 97 100 97 90 94 100 100 100 100 100 97 100 100 97 100 100 100 100 100 97
97 97 100 100 100 100 100 97 94 94 97 97 100 100 97 94 97 97 97 97 97 97 90 97 100 97 90 90 90 94 97 100 100 97 100 100 100 100 97 97 100 94 97
61 97 97 100 100 97 90 90 97 94 94 94 94 94 94 97 97 94 97 97 97 97 87 81 87 90 90 90 90 94 97 97 97 100 100 100 94 97 97 97 100 90 97
77 81 87 90 90 87 87 84 81 77 90 90 94 90 90 94 97 97 97 97 90 90 90 87 74 87 87 90 90 90 97 97 97 94 94 97 94 97 90 100 94 90 90
58 77 81 87 87 74 74 58 61 65 68 68 68 84 81 87 90 97 94 94 97 94 87 87 84 77 77 84 87 84 87 100 97 97 90 97 94 94 87 90 94 94 84
32 32 39 61 58 52 55 55 58 55 68 74 71 71 77 81 84 90 94 90 94 94 87 90 90 87 74 84 87 84 81 94 90 84 87 100 87 87 84 81 84 90 81
13 19 26 45 48 42 32 35 32 45 52 58 65 65 68 68 71 77 84 94 87 87 90 94 97 94 87 87 87 87 84 87 61 74 90 84 94 87 71 74 74 81 81
10 10 13 13 23 35 35 39 29 26 32 39 48 48 61 65 61 65 71 81 84 90 87 90 94 87 94 94 90 87 90 87 77 58 71 81 90 84 74 65 68 77 84
0 0 0 0 3 10 19 26 23 26 23 26 35 48 42 45 52 52 65 74 81 81 87 87 90 87 90 90 90 94 97 84 35 29 58 84 90 81 68 61 65 68 84
0 0 0 0 0 0 0 3 6 19 26 32 26 42 42 39 32 52 52 68 71 71 71 81 77 90 90 94 97 100 97 58 19 29 52 97 90 81 71 74 71 74 84
0 0 0 3 6 0 0 0 10 10 10 6 19 26 29 29 32 39 48 55 58 61 68 74 74 74 77 61 84 97 58 29 10 29 58 97 94 77 74 68 61 77 87
3 0 0 0 3 3 3 3 3 6 6 6 10 23 23 16 26 26 29 45 45 45 32 45 65 48 35 19 19 35 19 0 3 23 68 94 94 84 81 74 68 74 87
0 0 0 0 0 0 3 3 0 3 3 6 10 13 13 13 19 26 29 29 23 23 26 29 32 29 29 13 10 13 6 3 6 23 52 94 97 84 74 77 74 77 81
0 0 0 0 0 0 0 0 0 3 3 0 3 0 10 10 3 6 19 16 13 19 10 16 16 13 16 6 6 6 3 6 0 16 35 94 100 94 87 84 74 84 77
0 0 0 0 0 0 0 0 0 0 3 0 3 0 3 3 10 3 0 10 10 13 16 13 10 6 3 6 10 3 3 0 0 6 6 68 94 97 100 94 87 84 84
0 0 0 0 0 0 0 0 0 0 0 0 0 0 0 0 0 0 0 3 10 3 13 3 6 10 3 3 0 0 3 3 0 3 23 3 19 77 100 100 94 87 81
0 0 0 0 0 0 0 0 0 0 0 0 0 0 0 0 0 0 0 0 6 3 0 0 0 3 0 3 3 0 0 3 3 0 6 10 3 0 48 100 97 94 90
0 0 0 0 0 0 0 0 0 0 0 0 0 0 0 0 0 0 0 0 0 0 0 0 0 3 3 3 3 0 0 0 0 0 0 0 0 3 0 45 100 97 100
0 0 0 0 0 0 0 0 0 0 0 0 0 0 0 0 0 0 0 0 0 3 3 3 0 0 3 3 3 0 3 0 0 0 0 0 0 0 0 0 23 45 100
0 0 0 0 0 0 0 0 0 0 0 0 0 0 0 0 0 0 0 0 0 0 3 3 3 6 3 3 3 0 0 0 0 0 0 0 0 0 3 0 0 0 23
0 0 0 0 0 0 0 0 0 0 0 0 0 0 0 0 0 0 0 0 0 0 0 0 3 3 0 3 3 0 0 0 0 0 0 0 0 0 0 0 0 0 0
0 0 0 0 0 0 0 0 0 0 0 0 0 0 0 0 0 0 0 0 0 0 0 0 3 6 3 3 3 0 0 0 0 0 0 0 0 0 0 0 0 0 0
0 0 0 0 0 0 0 0 0 0 0 0 0 0 0 0 0 0 0 0 0 0 0 0 0 0 0 0 0 3 0 0 0 0 0 0 0 0 0 0 0 0 0
0 0 0 0 0 0 0 0 0 0 0 0 0 0 0 0 0 0 0 0 0 0 0 0 0 0 0 0 0 0 0 0 0 0 0 0 0 0 0 0 0 0 0
0 0 0 0 0 0 0 0 0 0 0 0 0 0 0 0 0 0 0 0 0 0 0 0 6 6 3 0 0 0 0 0 0 0 0 0 0 0 0 0 0 0 0
Height
5900 5899 5899 5898 5898 5897 5897 5897 5896 5896 5895 5895 5895 5894 5894 5894 5894 5894 5894 5895 5895 5895 5896 5896 5897 5897 5898 5899 5899 5900 5901 5902 5902 5903 5903 5904 5904 5904 5904 5904 5904 5903 5903
5899 5898 5898 5898 5897 5897 5897 5896 5896 5895 5895 5894 5894 5894 5893 5893 5893 5893 5893 5893 5894 5894 5894 5894 5895 5895 5896 5897 5897 5898 5899 5900 5900 5901 5901 5902 5902 5903 5903 5903 5903 5903 5903
5898 5897 5897 5897 5896 5896 5896 5895 5895 5894 5894 5893 5893 5893 5892 5892 5892 5892 5892 5892 5892 5892 5892 5893 5893 5894 5894 5895 5895 5896 5897 5897 5898 5899 5900 5900 5900 5901 5902 5902 5902 5902 5902
5897 5896 5896 5895 5894 5894 5894 5893 5893 5893 5892 5892 5892 5891 5891 5891 5891 5891 5891 5891 5891 5891 5891 5891 5892 5892 5892 5893 5893 5894 5895 5895 5896 5897 5898 5898 5899 5899 5900 5901 5901 5901 5902
5895 5894 5894 5893 5892 5891 5891 5891 5890 5890 5889 5889 5889 5889 5889 5889 5889 5889 5889 5889 5889 5889 5890 5890 5890 5890 5891 5891 5892 5892 5892 5893 5894 5895 5896 5896 5897 5898 5899 5899 5900 5900 5901
5893 5892 5891 5890 5889 5888 5888 5887 5887 5886 5886 5886 5886 5886 5886 5886 5886 5887 5887 5887 5888 5888 5888 5888 5888 5888 5889 5889 5890 5890 5891 5891 5892 5893 5894 5894 5895 5896 5897 5898 5899 5900 5900
5890 5889 5887 5887 5886 5885 5884 5883 5883 5883 5882 5882 5882 5883 5883 5883 5884 5884 5884 5885 5885 5885 5886 5886 5886 5887 5887 5887 5888 5888 5889 5890 5890 5891 5892 5893 5893 5894 5895 5896 5898 5899 5899
5886 5885 5883 5882 5882 5881 5880 5879 5879 5878 5878 5878 5878 5879 5879 5880 5880 5881 5881 5882 5882 5883 5883 5884 5884 5885 5885 5886 5886 5886 5887 5888 5889 5890 5891 5891 5892 5893 5894 5895 5896 5897 5899
5881 5879 5878 5877 5876 5875 5875 5875 5874 5874 5874 5874 5874 5874 5875 5875 5876 5877 5877 5878 5879 5880 5881 5881 5882 5883 5883 5884 5884 5885 5885 5886 5887 5888 5889 5890 5891 5892 5893 5894 5895 5897 5898
5875 5873 5872 5870 5870 5869 5869 5868 5868 5868 5868 5868 5869 5869 5870 5870 5871 5872 5873 5874 5875 5876 5877 5878 5879 5880 5881 5881 5882 5883 5884 5885 5886 5887 5888 5888 5889 5890 5892 5893 5894 5896 5897
5869 5867 5865 5864 5862 5861 5861 5861 5861 5861 5862 5862 5863 5863 5864 5865 5866 5867 5868 5870 5871 5872 5874 5875 5876 5877 5878 5879 5880 5881 5882 5883 5884 5885 5886 5887 5888 5889 5891 5892 5893 5895 5897
5862 5860 5858 5856 5855 5854 5853 5853 5853 5853 5854 5855 5856 5857 5858 5859 5860 5862 5863 5865 5866 5868 5869 5871 5872 5874 5875 5876 5878 5879 5880 5881 5883 5884 5885 5886 5887 5888 5890 5891 5892 5894 5896
5856 5853 5851 5849 5847 5847 5846 5845 5845 5845 5845 5846 5847 5849 5850 5852 5854 5856 5857 5859 5861 5863 5864 5866 5868 5869 5871 5873 5875 5876 5878 5879 5881 5882 5883 5884 5886 5887 5888 5890 5892 5893 5895
5850 5847 5845 5842 5841 5839 5838 5837 5837 5837 5837 5838 5839 5840 5842 5844 5846 5848 5851 5852 5855 5857 5859 5861 5863 5865 5867 5869 5871 5873 5875 5877 5878 5880 5881 5883 5884 5885 5887 5889 5890 5892 5894
5845 5842 5839 5837 5834 5832 5831 5830 5829 5829 5829 5830 5830 5832 5833 5835 5838 5840 5843 5845 5848 5850 5853 5856 5858 5860 5862 5865 5867 5870 5872 5873 5876 5878 5879 5881 5882 5884 5885 5887 5889 5891 5893
5840 5837 5834 5831 5829 5826 5824 5823 5821 5821 5821 5821 5822 5823 5825 5826 5829 5831 5835 5838 5840 5843 5846 5849 5851 5854 5857 5859 5862 5865 5868 5870 5873 5875 5876 5878 5880 5882 5884 5886 5887 5889 5892
5837 5833 5830 5827 5824 5821 5818 5816 5814 5813 5813 5813 5814 5815 5816 5818 5820 5823 5826 5829 5833 5836 5839 5842 5845 5848 5851 5854 5857 5860 5863 5866 5869 5871 5873 5875 5877 5879 5881 5884 5886 5888 5890
5833 5830 5826 5823 5819 5816 5813 5810 5808 5807 5806 5806 5806 5807 5808 5810 5812 5815 5818 5821 5824 5828 5831 5834 5838 5841 5845 5848 5851 5854 5858 5861 5864 5867 5870 5872 5874 5877 5879 5881 5884 5886 5888
5831 5827 5823 5819 5816 5812 5809 5806 5803 5801 5799 5799 5799 5800 5801 5802 5804 5807 5810 5813 5816 5820 5823 5827 5830 5834 5838 5841 5845 5848 5852 5856 5859 5862 5866 5869 5871 5874 5876 5879 5881 5884 5886
5829 5825 5821 5817 5813 5809 5805 5802 5799 5796 5794 5793 5793 5793 5794 5796 5798 5800 5802 5805 5808 5812 5815 5819 5823 5827 5830 5834 5838 5842 5846 5849 5853 5857 5861 5864 5867 5870 5872 5876 5878 5881 5884
5828 5823 5819 5815 5811 5807 5803 5800 5796 5794 5791 5789 5788 5788 5788 5790 5791 5793 5795 5798 5801 5804 5808 5811 5815 5819 5823 5827 5831 5835 5838 5843 5846 5851 5855 5859 5862 5865 5868 5872 5874 5877 5880
5827 5823 5818 5814 5810 5805 5802 5798 5795 5792 5789 5787 5785 5784 5784 5785 5786 5787 5789 5791 5794 5797 5800 5804 5807 5811 5815 5819 5823 5826 5831 5836 5840 5844 5848 5852 5856 5860 5863 5867 5870 5873 5876
5827 5823 5818 5814 5810 5805 5801 5797 5794 5790 5788 5785 5783 5782 5781 5781 5781 5782 5783 5785 5787 5790 5793 5796 5799 5803 5807 5811 5815 5819 5824 5829 5833 5837 5841 5846 5850 5853 5857 5861 5865 5868 5871
5828 5823 5819 5814 5810 5806 5802 5798 5794 5790 5787 5784 5782 5780 5779 5778 5778 5778 5778 5779 5781 5783 5786 5788 5792 5795 5798 5802 5806 5811 5816 5820 5825 5829 5834 5838 5842 5847 5851 5854 5858 5862 5865
5828 5824 5819 5815 5811 5807 5802 5798 5794 5791 5787 5784 5781 5779 5777 5776 5775 5774 5774 5774 5775 5777 5779 5781 5784 5787 5791 5794 5798 5802 5806 5811 5816 5821 5826 5830 5835 5839 5843 5847 5851 5855 5859
5829 5825 5821 5817 5812 5808 5803 5799 5795 5791 5788 5784 5781 5778 5776 5774 5772 5771 5770 5770 5770 5771 5773 5774 5777 5779 5782 5786 5789 5793 5798 5802 5807 5812 5817 5822 5826 5831 5835 5839 5844 5848 5852
Wind_Speed
7 7 7 7 6 6 6 6 6 7 7 8 9 10 10 11 12 13 13 14 14 14 14 14 14 14 14 14 14 14 13 13 12 11 11 10 9 9 8 8 8 8 8
9 9 9 9 9 9 9 9 9 9 9 9 10 10 11 11 12 12 13 13 14 14 13 13 13 13 14 14 15 15 15 15 14 13 12 11 10 9 8 7 7 7 6
10 10 11 11 12 11 12 12 12 12 11 11 11 11 11 12 12 12 13 13 13 13 13 13 13 13 13 14 14 15 15 15 14 13 12 12 11 9 8 7 6 6 5
11 12 12 13 14 14 15 15 15 15 15 14 14 14 14 13 13 12 13 13 13 13 12 12 12 13 13 13 13 14 14 14 14 13 12 12 10 9 8 7 6 5 3
13 13 14 15 16 16 17 17 18 18 18 18 17 17 16 15 14 13 13 13 13 12 12 12 12 12 12 12 12 12 13 13 12 12 11 11 10 9 8 7 6 4 3
16 16 17 17 18 18 19 19 19 20 21 21 21 20 19 18 17 15 14 14 13 12 12 12 11 11 11 11 11 11 11 11 11 10 10 10 10 9 8 7 5 4 3
19 19 20 20 21 20 21 22 22 22 23 24 24 23 23 22 20 18 17 16 15 13 12 12 11 11 10 10 10 11 10 10 10 10 9 9 9 8 7 7 6 5 5
24 24 24 24 23 23 22 22 23 24 24 24 25 26 26 25 23 21 20 19 17 15 14 13 12 11 10 10 10 10 10 10 9 9 9 9 8 8 7 7 6 6 7
27 27 27 27 27 26 26 25 25 25 26 26 26 28 28 27 27 25 23 21 20 18 16 14 13 12 11 11 10 10 10 9 9 9 8 8 8 8 8 7 7 7 8
30 30 30 30 30 30 29 28 29 29 28 28 27 28 29 28 27 27 26 24 23 21 19 17 15 13 12 11 11 10 10 10 9 9 9 9 8 9 8 8 8 9 8
31 31 32 32 32 32 32 32 31 32 31 31 31 30 30 28 26 26 26 25 24 23 21 19 18 16 14 13 12 11 11 10 9 9 9 9 9 9 9 9 9 10 9
32 32 33 33 33 33 32 32 32 33 34 34 34 33 32 31 30 29 27 27 26 24 24 22 20 19 17 15 14 13 12 11 10 10 10 10 10 10 10 10 10 10 10
30 30 31 31 31 31 31 32 32 33 34 35 36 36 35 34 33 31 30 29 28 27 26 25 24 22 20 18 16 15 13 13 12 11 11 11 11 11 11 11 11 11 11
27 27 28 29 30 30 30 31 31 33 33 34 35 36 37 37 36 34 32 31 32 30 29 28 26 25 22 21 19 17 16 15 13 12 12 12 12 12 12 12 12 12 12
26 26 26 27 27 28 28 29 30 31 32 33 34 35 36 37 38 37 35 34 33 34 31 29 28 25 25 24 21 20 18 17 16 14 14 13 13 13 13 13 13 13 13
24 23 23 24 24 25 26 26 27 28 29 31 32 33 34 35 37 38 37 36 35 35 33 31 29 27 25 24 22 22 20 19 18 17 16 14 14 14 14 14 14 14 14
23 23 23 23 23 23 24 24 25 26 27 28 30 30 31 32 34 36 36 37 36 36 35 32 31 30 28 25 25 24 23 22 21 19 18 17 16 15 16 15 15 15 16
22 22 22 22 21 21 22 23 23 24 25 26 27 28 29 30 32 33 34 35 36 36 37 35 33 31 29 28 27 26 25 24 23 21 20 19 18 17 17 17 17 17 16
21 21 21 21 21 21 21 21 21 22 22 23 24 25 27 28 29 31 32 33 35 36 36 36 35 34 32 31 30 28 26 26 26 24 22 22 21 19 19 19 19 18 18
21 21 21 21 21 20 19 18 18 18 18 19 21 22 24 26 27 29 30 32 32 33 34 35 36 35 35 33 31 30 28 27 27 26 25 24 23 22 22 21 21 21 20
21 21 21 21 20 19 18 18 17 16 15 15 16 18 20 22 24 26 28 29 30 31 32 33 35 36 35 34 33 33 31 29 27 28 28 27 26 25 24 24 24 23 22
21 21 21 21 20 20 19 18 17 16 15 14 13 14 16 18 20 22 24 26 28 29 31 32 33 35 36 35 35 35 34 31 30 30 29 29 29 29 27 26 26 25 24
21 21 21 21 21 20 19 19 17 16 15 14 12 12 13 14 17 19 21 23 25 27 29 31 32 34 35 36 37 36 35 34 33 33 32 32 31 31 31 30 30 28 27
21 21 21 21 22 21 20 20 19 17 16 14 13 11 11 12 14 16 19 21 22 24 27 29 31 32 33 35 37 38 37 36 36 35 35 34 33 33 33 32 32 32 31
21 21 21 22 22 22 21 21 20 19 17 16 14 13 12 12 12 13 15 18 20 22 24 27 30 31 33 34 36 37 38 38 38 38 37 36 36 35 35 35 34 33 33
20 21 22 22 22 22 22 22 21 20 19 18 17 15 14 13 13 13 13 15 17 20 22 24 27 30 32 34 36 36 37 38 39 39 39 40 38 37 37 37 36 35 34
Wind_Direction
286 279 277 275 272 268 262 257 255 251 247 244 244 247 249 248 244 243 243 243 243 244 244 244 243 243 243 242 241 240 240 244 248 255 263 268 276 287 298 313 325 338 348
287 280 278 276 272 269 265 262 259 257 253 251 250 251 253 252 250 248 246 244 244 244 245 245 244 244 244 242 242 242 244 246 250 253 259 264 269 277 287 299 312 326 335
293 285 280 278 274 268 265 262 261 257 255 253 253 253 254 254 253 252 250 248 247 246 247 248 245 245 245 244 243 243 246 246 250 250 253 259 262 267 275 285 299 309 323
296 290 281 277 275 269 265 262 259 257 254 253 253 254 253 253 253 253 253 252 250 249 249 250 248 247 247 246 244 244 245 247 247 247 250 254 255 257 262 270 282 288 306
298 292 288 282 281 274 267 263 261 259 253 248 250 251 251 250 251 251 253 253 252 251 251 250 249 249 246 244 243 243 245 245 244 244 246 247 246 247 250 256 264 260 271
294 290 289 286 285 280 272 265 264 262 256 248 247 249 248 246 247 247 249 251 251 249 249 250 249 247 244 242 241 241 241 241 239 241 240 238 236 237 238 243 244 235 234
291 288 286 284 284 280 274 267 265 263 259 253 248 247 246 244 245 245 245 246 246 246 246 248 248 245 243 241 239 238 238 238 235 234 232 230 228 227 229 232 229 218 210
290 287 286 282 282 280 278 271 265 262 258 258 254 251 248 246 245 245 243 243 243 243 244 244 245 242 240 239 236 235 233 231 230 228 225 227 225 221 220 220 213 207 198
290 287 285 282 281 279 276 272 267 263 260 258 258 257 253 249 247 246 243 241 241 241 240 240 242 240 237 236 235 232 228 226 227 223 219 221 218 213 210 207 202 196 193
290 287 286 283 282 279 276 273 270 265 263 260 262 262 257 253 250 248 248 244 242 240 238 238 237 237 235 234 233 231 226 223 220 217 213 215 209 206 202 199 194 190 187
290 288 286 284 282 279 276 274 270 266 264 262 262 261 258 255 252 249 250 248 244 241 237 236 236 234 233 230 229 228 225 222 217 213 212 211 204 201 198 195 190 187 187
292 290 288 285 283 281 278 275 271 268 265 263 262 262 261 259 258 254 251 251 247 243 239 236 236 233 230 229 226 226 225 222 217 213 212 209 204 200 196 194 192 190 190
296 294 291 289 286 283 280 277 273 269 267 265 265 264 261 260 261 259 257 254 250 247 243 239 236 233 231 229 227 225 225 222 217 213 214 212 206 201 198 195 194 192 191
302 299 295 292 289 287 283 280 276 273 270 267 265 264 263 260 259 257 256 255 251 249 245 241 238 235 231 228 225 226 225 223 220 215 214 212 208 204 201 198 195 194 191
308 304 302 298 295 292 288 284 279 275 272 268 266 265 263 260 257 256 255 255 253 250 248 243 241 237 232 228 227 228 227 225 222 217 216 213 209 206 203 199 196 194 192
315 312 310 306 302 298 294 288 283 277 273 270 267 265 264 262 260 257 256 256 255 252 248 244 242 238 235 231 228 227 226 225 223 219 219 216 212 209 205 201 200 198 196
320 317 315 312 309 304 299 294 288 281 276 271 267 265 262 260 260 259 257 257 254 253 252 249 245 243 240 237 233 231 229 226 226 221 220 218 216 212 208 205 203 201 199
326 325 322 320 316 311 306 300 293 287 280 273 268 265 262 259 258 258 257 256 254 254 253 253 250 247 243 240 238 234 231 228 226 223 221 221 220 216 212 209 207 204 202
335 333 331 328 324 319 314 308 302 294 285 276 270 266 262 260 258 256 256 255 254 253 253 254 253 251 246 243 240 236 234 230 227 227 224 223 221 219 216 214 212 208 207
343 341 340 337 333 330 325 321 316 308 297 285 275 269 264 260 259 257 256 255 254 252 251 251 250 252 249 245 242 238 236 232 229 229 229 226 223 220 220 218 216 214 213
352 351 350 348 345 342 338 334 329 324 315 301 286 275 267 262 260 258 257 255 253 251 250 249 248 249 249 247 245 242 240 236 233 233 232 230 227 224 222 221 220 218 218
360 359 358 356 355 352 350 347 342 337 330 319 304 288 276 268 264 261 258 256 253 251 250 248 247 247 247 247 246 245 242 238 238 237 236 234 230 227 224 223 224 222 222
5 5 4 4 3 1 359 357 353 348 343 337 324 307 291 279 272 267 262 258 256 253 251 249 247 247 246 246 246 245 243 242 240 240 238 236 234 231 228 226 226 226 226
9 9 8 9 9 8 7 5 3 359 354 349 341 330 313 297 285 276 269 263 259 256 252 249 248 247 246 244 245 245 244 242 241 240 240 237 235 233 230 228 228 228 228
14 15 15 14 13 12 11 10 9 7 3 358 350 341 330 317 303 292 280 269 262 258 255 251 249 247 247 244 244 244 242 241 240 240 240 238 236 234 233 231 230 231 231
19 19 18 17 16 15 15 14 13 11 8 4 359 350 340 328 317 306 294 281 269 262 258 254 251 249 248 247 246 244 242 241 240 239 239 239 238 236 236 234 232 232 233